McComb, MS

1:06 AM CDT on July 26, 2017 (GMT -0500)
McComb-Pike County-Lewis

Weather History for KMCB - June, 2012

Change the Weather History Date:

Saturday, June 9, 2012

  Actual Average Record
Temperature  
Mean Temperature 76 °F -  
Max Temperature 81 °F 89 °F 99 °F (1963)
Min Temperature 71 °F 66 °F 57 °F (1976)
Cooling Degree Days 10    
Growing Degree Days 26 (Base 50)    
Moisture  
Dew Point 71 °F    
Average Humidity 86    
Maximum Humidity 94    
Minimum Humidity 74    
Precipitation  
Precipitation 0.07 in - - ()
Sea Level Pressure  
Sea Level Pressure 29.85 in    
Wind  
Wind Speed 3 mph (ESE)    
Max Wind Speed 10 mph    
Max Gust Speed 18 mph    
Visibility 10 miles    
Events Rain , Thunderstorm    
Averages and records for this station are not official NWS values.
T = Trace of Precipitation, MM = Missing Value Source: NWS Daily Summary

Daily Weather History Graph

Daily Weather History Graph

Search for Another Location

Airport or City:

Trip Planner

Search our weather history database for the weather conditions in past years. The results will help you decide how hot, cold, wet, or windy it might be!

Date:

Astronomy

Jun. 09, 2012 Rise Set
Actual Time 5:57 AM CDT 8:05 PM CDT
Civil Twilight 5:29 AM CDT 8:33 PM CDT
Nautical Twilight 4:55 AM CDT 9:07 PM CDT
Astronomical Twilight 4:19 AM CDT 9:43 PM CDT
Moon No Moon Rise 11:25 AM CDT (6/9)
Length of Visible Light 15h 03m
Length of Day
14h 08m
Waning Gibbous, 68% of the Moon is Illuminated
Jun 9
Waning Gibbous
Jun 11
Last Quarter
Jun 19
New
Jun 26
First Quarter
Jul 3
Full

Hourly Weather History & Observations

Time (CDT) Temp. Heat Index Dew Point Humidity Pressure Visibility Wind Dir Wind Speed Gust Speed Precip Events Conditions
12:53 AM 73.0 °F - 69.1 °F 87% 29.88 in 10.0 mi Calm Calm - N/A   Clear
1:50 AM 71.6 °F - 69.8 °F 94% 29.88 in 10.0 mi Calm Calm - N/A   Mostly Cloudy
1:53 AM 72.0 °F - 69.1 °F 91% 29.86 in 10.0 mi NE 3.5 mph - N/A   Mostly Cloudy
3:14 AM 73.4 °F - 69.8 °F 88% 29.87 in 10.0 mi East 4.6 mph - N/A   Overcast
3:53 AM 73.0 °F - 70.0 °F 90% 29.85 in 10.0 mi Variable 3.5 mph - N/A   Overcast
4:43 AM 73.4 °F - 69.8 °F 88% 29.86 in 10.0 mi East 3.5 mph - N/A   Overcast
4:53 AM 73.0 °F - 70.0 °F 90% 29.85 in 10.0 mi Calm Calm - N/A   Overcast
5:53 AM 73.0 °F - 70.0 °F 90% 29.86 in 10.0 mi ENE 3.5 mph - N/A   Overcast
6:36 AM 73.4 °F - 69.8 °F 88% 29.88 in 10.0 mi East 3.5 mph - N/A   Overcast
6:53 AM 73.0 °F - 70.0 °F 90% 29.87 in 10.0 mi ENE 4.6 mph - N/A   Overcast
7:00 AM 73.4 °F - 69.8 °F 88% 29.88 in 10.0 mi ENE 6.9 mph - N/A   Overcast
7:53 AM 73.9 °F - 71.1 °F 91% 29.88 in 10.0 mi Calm Calm - N/A   Overcast
8:53 AM 75.0 °F - 71.1 °F 87% 29.88 in 10.0 mi Variable 3.5 mph - N/A   Overcast
9:01 AM 75.2 °F - 71.6 °F 89% 29.89 in 10.0 mi Calm Calm - N/A   Overcast
9:53 AM 75.9 °F - 71.1 °F 85% 29.88 in 10.0 mi Calm Calm - N/A   Overcast
10:05 AM 75.2 °F - 71.6 °F 89% 29.90 in 10.0 mi Variable 3.5 mph - N/A   Overcast
10:20 AM 77.0 °F - 71.6 °F 83% 29.90 in 10.0 mi East 5.8 mph - N/A   Mostly Cloudy
10:31 AM 77.0 °F - 71.6 °F 83% 29.89 in 10.0 mi Variable 3.5 mph - N/A   Mostly Cloudy
10:53 AM 77.0 °F - 71.1 °F 82% 29.88 in 10.0 mi East 3.5 mph - N/A   Overcast
11:53 AM 75.9 °F - 72.0 °F 87% 29.87 in 10.0 mi Variable 3.5 mph - 0.00 in Rain Light Rain
12:53 PM 78.1 °F - 72.0 °F 81% 29.84 in 10.0 mi ENE 6.9 mph - 0.00 in   Mostly Cloudy
1:00 PM 78.8 °F - 71.6 °F 78% 29.86 in 10.0 mi Variable 5.8 mph - N/A   Mostly Cloudy
1:10 PM 78.8 °F - 71.6 °F 78% 29.86 in 10.0 mi East 4.6 mph - N/A   Mostly Cloudy
1:36 PM 75.2 °F - 71.6 °F 89% 29.86 in 7.0 mi East 8.1 mph 18.4 mph 0.00 in Rain Light Rain
1:45 PM 75.2 °F - 73.4 °F 94% 29.85 in 7.0 mi East 9.2 mph - 0.00 in Rain Light Rain
1:53 PM 77.0 °F - 73.0 °F 88% 29.83 in 10.0 mi ESE 8.1 mph 17.3 mph 0.00 in Rain Light Rain
2:53 PM 78.1 °F - 75.0 °F 90% 29.82 in 10.0 mi ESE 5.8 mph - 0.02 in Rain Light Rain
3:53 PM 80.1 °F 83.6 °F 71.1 °F 74% 29.82 in 10.0 mi East 8.1 mph - 0.00 in   Partly Cloudy
4:53 PM 79.0 °F - 70.0 °F 74% 29.81 in 10.0 mi Variable 6.9 mph - N/A   Scattered Clouds
5:53 PM 77.0 °F - 71.1 °F 82% 29.79 in 10.0 mi SE 9.2 mph - N/A   Partly Cloudy
6:07 PM 77.0 °F - 71.6 °F 83% 29.82 in 10.0 mi SSE 9.2 mph - N/A Thunderstorm Partly Cloudy
6:22 PM 77.0 °F - 71.6 °F 83% 29.82 in 10.0 mi SSE 10.4 mph 16.1 mph N/A   Scattered Clouds
6:53 PM 75.0 °F - 72.0 °F 90% 29.80 in 7.0 mi SSE 5.8 mph - 0.03 in Rain Light Rain
7:17 PM 75.2 °F - 71.6 °F 89% 29.82 in 10.0 mi Variable 4.6 mph - 0.01 in Rain Light Rain
7:53 PM 75.0 °F - 70.0 °F 84% 29.81 in 10.0 mi SE 4.6 mph - 0.02 in   Overcast
8:53 PM 73.9 °F - 69.1 °F 85% 29.83 in 10.0 mi SE 3.5 mph - N/A   Overcast
9:20 PM 73.4 °F - 69.8 °F 88% 29.85 in 10.0 mi Calm Calm - N/A   Overcast
9:27 PM 73.4 °F - 69.8 °F 88% 29.85 in 10.0 mi Variable 4.6 mph - N/A   Overcast
9:45 PM 73.4 °F - 69.8 °F 88% 29.85 in 10.0 mi SE 4.6 mph - N/A   Mostly Cloudy
9:53 PM 73.9 °F - 69.1 °F 85% 29.84 in 10.0 mi SE 4.6 mph - N/A   Scattered Clouds
10:53 PM 73.0 °F - 69.1 °F 87% 29.85 in 10.0 mi SSE 5.8 mph - N/A   Partly Cloudy
11:53 PM 73.0 °F - 69.1 °F 87% 29.85 in 10.0 mi Calm Calm - N/A   Mostly Cloudy